Location: Gniazdowice
(50.2124°N, 20.2673°E)
Time: 04:05:36
(UTC+00:00)

Daily predictions for brighter satellites

Satellite Brightness Start Highest point End
(mag) Time Altitude Azimuth Time Altitude Azimuth Time Altitude Azimuth
Cosmos 1315 Rocket 3.2 00:04:20 27° SSE 00:06:08 53° E 00:09:58 10° NNE
SJ 16-02 3.6 00:03:27 10° SE 00:06:10 16° E 00:08:52 10° ENE
Cosmos 2228 Rocket 4.1 00:05:20 23° WSW 00:07:22 35° WNW 00:11:32 10° N
Meteor 1-21 4.5 00:04:42 25° SW 00:07:55 59° WNW 00:13:37 10° N
Helios 1A Rocket 3.3 00:07:44 33° SW 00:08:50 41° W 00:12:32 10° NNW
Cosmos 2082 Rocket 2.4 00:07:01 24° SW 00:10:34 68° WNW 00:16:18 10° NNE
SL-16 R/B 3.9 00:06:59 10° SE 00:12:43 39° ENE 00:18:28 10° N
Cosmos 2219 Rocket 4.2 00:08:03 10° NNW 00:13:00 30° NE 00:17:56 10° ESE
Cosmos 1833 Rocket 4.3 00:08:40 10° W 00:13:24 27° NW 00:18:10 10° NNE
BREEZE-M DEB (TANK) 4.4 00:13:11 19° WSW 00:15:22 31° SSW 00:23:54 10° SE
CZ-2D R/B 3.1 00:11:55 10° NNE 00:17:08 43° E 00:21:24 15° SSE
Cosmos 1782 Rocket 3.8 00:14:47 10° N 00:19:11 68° E 00:22:35 16° SSE
Cosmos 2237 4.2 00:13:58 10° NNW 00:19:44 81° WSW 00:25:27 10° SSE
Cosmos 1908 Rocket 3.6 00:15:31 10° NNW 00:19:56 65° W 00:22:20 26° S
Cosmos 2360 Rocket 3.0 00:16:34 10° NNW 00:22:10 54° NE 00:27:43 10° SE
USA 267 3.6 00:15:44 10° ENE 00:22:12 65° NNW 00:28:39 10° W
Cosmos 968 Rocket 4.5 00:22:13 16° SSE 00:25:49 38° ESE 00:30:33 10° NE
DELTA 2 R/B (1) 4.5 00:26:16 23° SSW 00:27:56 27° S 00:32:33 10° SE
MSX 4.2 00:22:47 10° NNE 00:28:29 60° ESE 00:32:57 17° S
Cosmos 1455 2.2 00:26:35 10° NNW 00:29:58 50° W 00:31:18 30° SSW
Resurs 1-4 Rocket 2.5 00:26:42 10° NNE 00:31:54 58° ESE 00:36:00 16° S
Cosmos 841 Rocket 3.6 00:27:20 10° NNW 00:32:27 56° WSW 00:36:21 17° S
RESURS DK-1 3.9 00:28:46 10° NNW 00:32:36 38° NE 00:36:24 10° ESE
H-2A R/B 3.3 00:37:17 10° NNE 00:41:19 88° ESE 00:43:50 22° SSW
Cosmos 2278 3.9 00:36:23 10° NW 00:41:53 50° WSW 00:46:48 13° S
COBE Rocket 3.9 00:39:44 10° N 00:44:37 82° WNW 00:48:15 19° SSW
Okean 2 4.4 00:49:49 19° WSW 00:51:57 32° WNW 00:55:35 10° N
CZ-2C R/B 2.5 00:47:46 11° S 00:52:43 73° WSW 00:57:56 10° NNW
Cosmos 1745 Rocket 4.2 00:48:37 18° SSW 00:53:16 62° WNW 00:59:32 10° N
Meteor 1-4 Rocket 3.2 00:53:08 22° WSW 00:54:20 29° WNW 00:57:01 10° N
Cosmos 2333 Rocket 2.4 00:49:11 10° NNW 00:54:56 80° ENE 01:00:41 10° SSE
Cosmos 2242 Rocket 3.7 00:53:26 16° S 00:57:00 79° E 01:01:31 10° NNE
Cosmos 2098 Rocket 3.9 00:54:11 10° N 00:59:13 73° E 01:05:14 10° SSE
Cosmos 2322 Rocket 2.2 00:54:06 10° NNW 00:59:44 72° WSW 01:05:22 10° SSE
USA 234 4.3 00:56:30 14° SSW 01:00:10 22° SW 01:05:08 10° WNW
Cosmos 1814 Rocket 4.0 00:55:31 10° NNW 01:00:45 85° WSW 01:06:01 10° SSE
Cosmos 1703 Rocket 4.3 00:58:54 18° SW 01:01:45 39° WNW 01:05:58 10° N
Cosmos 1953 3.8 01:00:43 10° NW 01:03:40 21° W 01:05:20 16° WSW
NPP 3.8 01:00:46 10° N 01:06:07 65° WNW 01:10:34 15° SSW
Meteor 2-5 Rocket 4.3 01:00:57 10° S 01:06:44 61° E 01:12:37 10° NNE
SL-27 R/B 2.6 01:08:51 16° S 01:10:51 47° ESE 01:13:36 10° NNE
Cosmos 1242 Rocket 2.4 01:13:25 19° SW 01:15:08 45° WNW 01:17:56 10° N
Okean 2 Rocket 3.9 01:11:20 10° N 01:15:39 53° ENE 01:19:58 10° SSE
SL-4 R/B 4.2 01:12:52 10° S 01:15:41 17° SE 01:18:35 10° E
Cosmos 1300 Rocket 4.1 01:12:57 10° NNW 01:17:00 39° W 01:20:25 13° SSW
ADEOS II 2.1 01:13:44 10° NNE 01:19:01 89° E 01:24:12 10° SSW
Cosmos 1408 2.4 01:21:25 16° SSW 01:23:31 47° WNW 01:26:27 10° N
IDEFIX/ARIANE 42P 3.2 01:18:54 10° N 01:23:54 46° WNW 01:28:28 12° SW
Lacrosse 5 rocket 2.3 01:23:14 10° WNW 01:26:30 24° SW 01:29:38 10° S
ALOS 2.6 01:22:15 10° NNE 01:26:52 64° ESE 01:31:26 10° S
Cosmos 839 Rocket 4.2 01:20:21 10° NW 01:27:42 72° WSW 01:33:56 10° SSE
Cosmos 2184 Rocket 4.4 01:23:48 10° S 01:29:56 66° E 01:36:11 10° NNE
EXPRESS MD2 3.4 01:27:55 14° SW 01:30:18 53° SSE 01:35:08 10° E
Nadezhda 3 Rocket 4.4 01:31:25 10° N 01:37:48 70° ENE 01:44:06 10° SSE
Envisat 4.1 01:33:03 10° NNE 01:37:54 42° E 01:42:41 10° S
Cosmos 405 Rocket 2.8 01:34:22 10° N 01:37:57 72° ENE 01:41:35 10° SSE
CZ-2C R/B 4.1 01:33:58 10° NNE 01:38:09 29° E 01:42:11 10° SSE
Cosmos 1378 Rocket 3.7 01:33:58 10° S 01:38:14 75° E 01:42:32 10° NNE
Cosmos 2154 Rocket 4.4 01:35:03 10° S 01:41:09 65° E 01:47:19 10° NNE
ATLAS 2AS CENTAUR R/B 2.7 01:34:57 10° NW 01:41:52 85° SW 01:48:30 10° SE
Okean 1 Rocket 3.6 01:38:07 10° N 01:42:26 62° ENE 01:46:43 10° SSE
CZ-2C R/B 3.6 01:36:44 10° N 01:42:27 57° WNW 01:48:03 10° SW
SL-16 R/B 3.4 01:39:16 10° NW 01:43:38 23° WSW 01:47:59 10° SSW
Cosmos 158 Rocket 4.5 01:38:27 10° NNW 01:43:52 69° ENE 01:49:12 10° SSE
SJ 16-02 1.5 01:39:50 10° SW 01:44:02 62° WNW 01:48:20 10° NNE
Cosmos 2322 4.1 01:40:01 10° NNW 01:45:46 71° ENE 01:51:26 10° SE
ATLAS CENTAUR R/B 3.6 01:44:26 10° SE 01:45:50 12° ESE 01:47:16 10° E
UNK 3.8 01:44:13 10° S 01:48:49 66° WSW 01:53:28 10° NNW
Cosmos 2333 4.4 01:45:32 10° NW 01:51:05 53° WSW 01:56:39 10° S
Cosmos 2082 Rocket 4.2 01:51:45 10° W 01:55:45 19° NW 01:59:47 10° N
SL-16 R/B 2.9 01:50:14 10° S 01:56:13 47° W 02:02:15 10° NNW
CZ-2D R/B 3.1 01:52:07 10° N 01:57:03 36° WNW 02:01:57 10° SW
Cosmos 2181 Rocket 4.4 01:51:15 10° NNW 01:57:17 46° W 02:03:12 10° SSW
Cosmos 2219 Rocket 2.2 01:51:46 10° NW 01:57:22 63° WSW 02:02:56 10° SSE
AQUA 4.4 01:58:59 10° N 02:03:30 45° WNW 02:07:58 10° SW
Meteor 1-28 Rocket 4.4 02:00:39 10° SSW 02:03:32 22° W 02:06:25 10° NW
Cosmos 1703 4.2 02:00:31 10° SW 02:03:51 30° WNW 02:07:12 10° N
USA 267 4.2 01:58:31 10° ENE 02:04:45 49° N 02:10:59 10° WNW
COSMOS 2428 2.9 02:00:07 10° NNW 02:05:50 80° ENE 02:11:31 10° SSE
Cosmos 2360 Rocket 3.0 02:01:00 10° NW 02:05:54 31° WSW 02:10:47 10° SSW
